Weather in Bolshoye Agishevo

Russia / Ryazan Oblast     54°07′14″N   41°44′18″E
temp.,
°C
wind,
m/s
gust,
m/s
humid.,
%
clouds,
%
prec.,
mm/h
press.,
hPa
HPBL,
m
1 march, mon
mon100:00−12nne119775 0.0 102021
03:00−13nnw229673 0.1 102221
06:00−12nnw229792 0.1 102320
09:00−11nnw239690 0.1 102593
12:00−7wnw239088 0.0 1025314
15:00−4wsw359189 0.0 1024363
18:00−8sw49947 0.0 1022172
21:00−4wsw5119554 0.0 1020611
2 march, tue
tue200:00−2wsw71392100 0.0 1017563
03:00−1wsw71392100 0.1 1014554
06:00+1wsw81492100 0.0 1010646
09:00+1w71398100 0.1 1009601
12:00+1wnw71399100 0.1 1007682
15:00+1wnw51097100 0.3 1007619
18:000wnw51091100 0.1 1006408
21:00−3nw499197 0.3 1008260
3 march, wed
wed300:00−4nw51193100 0.0 1008252
03:00−3nw51194100 0.1 1009362
06:00−6nw5149070 0.1 1010486
09:00−6nw7139064 0.1 1012718
12:00−4nw71186100 0.1 1013819
15:00−3nw6108181 0.1 1014888
18:00−4w4119350 0.0 1013360
21:00−3wnw5119264 0.1 1014368
4 march, thu
thu400:00−5w5129467 0.0 1013329
03:00−3w4109580 0.1 1012408
06:00−3sw6129298 0.0 1010512
09:00−1sw8149299 0.3 1008554
12:000sw91687100 0.0 1004745
15:00+1sw91781100 0.0 1003897
18:000wsw81683100 0.0 1001782
21:00+1wsw71489100 0.0 1001663
5 march, fri
fri500:00+1wsw51097100 0.1 1000484
03:00−1nnw4797100 1.0 1002334
06:00−4nnw2491100 0.3 1003151
09:00−4n2390100 0.3 1006201
12:00−3nne2284100 0.0 1007368
15:00−2ne228499 0.0 1008356
18:00−4ne2392100 0.0 100764
21:00−4ne4797100 0.9 1006284